LRCK Weather Reports


Display with metric or nautical units.
time (UTC)temp
F
wind
direction
speed
MPH
gust
MPH
rain 1hr
in
rain 24hr
in
rain mn
in
humidity
%
barometer
mb
20260831143318 81 110 10.0 0.0 0.00 0.00 0.00 37 1017.0
20260831141817 81 110 11.0 0.0 0.00 0.00 0.00 32 1018.0
20260831140325 81 110 11.0 0.0 0.00 0.00 0.00 32 1018.0
20260831134818 82 90 11.0 0.0 0.00 0.00 0.00 30 1018.0
20260831133318 82 90 11.0 0.0 0.00 0.00 0.00 30 1018.0
20260831131817 82 80 11.0 0.0 0.00 0.00 0.00 32 1018.0
20260831130318 82 80 11.0 0.0 0.00 0.00 0.00 32 1018.0
20260831124834 82 80 13.0 0.0 0.00 0.00 0.00 25 1018.0
20260831123317 82 80 13.0 0.0 0.00 0.00 0.00 25 1018.0
20260831121818 82 90 14.0 0.0 0.00 0.00 0.00 30 1018.0
20260831120317 82 90 14.0 0.0 0.00 0.00 0.00 30 1018.0
20260831114817 82 80 14.0 0.0 0.00 0.00 0.00 35 1018.0
20260831113317 82 80 14.0 0.0 0.00 0.00 0.00 35 1018.0
20260831111838 82 80 13.0 0.0 0.00 0.00 0.00 40 1018.0
20260831110317 82 80 13.0 0.0 0.00 0.00 0.00 40 1018.0
20260831104818 84 80 13.0 0.0 0.00 0.00 0.00 31 1018.0
20260831103317 84 80 13.0 0.0 0.00 0.00 0.00 31 1018.0
20260831101817 84 100 13.0 0.0 0.00 0.00 0.00 22 1018.0
20260831100317 84 100 13.0 0.0 0.00 0.00 0.00 22 1018.0
20260831094817 84 80 11.0 0.0 0.00 0.00 0.00 25 1019.0
20260831093432 84 80 11.0 0.0 0.00 0.00 0.00 25 1019.0
20260831091817 82 80 9.0 0.0 0.00 0.00 0.00 26 1019.0
20260831090317 82 80 9.0 0.0 0.00 0.00 0.00 26 1019.0
20260831084817 82 60 8.0 0.0 0.00 0.00 0.00 35 1019.0
20260831083317 82 60 8.0 0.0 0.00 0.00 0.00 35 1019.0
20260831081932 81 70 9.0 0.0 0.00 0.00 0.00 39 1019.0
20260831080317 81 70 9.0 0.0 0.00 0.00 0.00 39 1019.0
20260831074833 79 60 9.0 0.0 0.00 0.00 0.00 48 1018.0
20260831073317 79 60 9.0 0.0 0.00 0.00 0.00 48 1018.0
20260831071846 79 50 8.0 0.0 0.00 0.00 0.00 51 1018.0
20260831070318 79 50 8.0 0.0 0.00 0.00 0.00 51 1018.0
20260831064817 77 40 8.0 0.0 0.00 0.00 0.00 61 1018.0
20260831063317 77 40 8.0 0.0 0.00 0.00 0.00 61 1018.0
20260831061818 75 20 8.0 0.0 0.00 0.00 0.00 65 1018.0
20260831060317 75 20 8.0 0.0 0.00 0.00 0.00 65 1018.0
20260831054818 73 20 8.0 0.0 0.00 0.00 0.00 69 1018.0
20260831053317 73 20 8.0 0.0 0.00 0.00 0.00 69 1018.0
20260831051817 70 10 7.0 0.0 0.00 0.00 0.00 73 1018.0
20260831050317 70 10 7.0 0.0 0.00 0.00 0.00 73 1018.0
20260831044819 66 360 7.0 0.0 0.00 0.00 0.00 78 1018.0
20260831043321 66 360 7.0 0.0 0.00 0.00 0.00 78 1018.0
20260831041817 61 360 8.0 0.0 0.00 0.00 0.00 88 1018.0
20260831040317 61 360 8.0 0.0 0.00 0.00 0.00 88 1018.0
20260831034817 63 340 7.0 0.0 0.00 0.00 0.00 88 1018.0
20260831033317 63 340 7.0 0.0 0.00 0.00 0.00 88 1018.0
20260831031817 61 350 9.0 0.0 0.00 0.00 0.00 88 1018.0
20260831030318 61 350 9.0 0.0 0.00 0.00 0.00 88 1018.0
20260831024817 63 360 7.0 0.0 0.00 0.00 0.00 88 1018.0
20260831023325 63 360 7.0 0.0 0.00 0.00 0.00 88 1018.0
20260831021817 63 10 7.0 0.0 0.00 0.00 0.00 94 1018.0
20260831020319 63 10 7.0 0.0 0.00 0.00 0.00 94 1018.0
20260831014817 63 360 7.0 0.0 0.00 0.00 0.00 94 1018.0
20260831013316 63 360 7.0 0.0 0.00 0.00 0.00 94 1018.0
20260831011818 63 360 7.0 0.0 0.00 0.00 0.00 94 1018.0
20260831010317 63 360 7.0 0.0 0.00 0.00 0.00 94 1018.0
20260831004817 63 10 6.0 0.0 0.00 0.00 0.00 94 1018.0
20260831003317 63 10 6.0 0.0 0.00 0.00 0.00 94 1018.0
20260831001817 63 30 6.0 0.0 0.00 0.00 0.00 94 1018.0
20260831000318 63 30 6.0 0.0 0.00 0.00 0.00 94 1018.0
20260830234817 63 20 7.0 0.0 0.00 0.00 0.00 94 1018.0
20260830233317 63 20 7.0 0.0 0.00 0.00 0.00 94 1018.0
20260830231818 63 30 5.0 0.0 0.00 0.00 0.00 94 1018.0
20260830230318 63 30 5.0 0.0 0.00 0.00 0.00 94 1018.0
20260830224817 64 10 6.0 0.0 0.00 0.00 0.00 88 1018.0
20260830223317 64 10 6.0 0.0 0.00 0.00 0.00 88 1018.0
20260830221817 64 10 6.0 0.0 0.00 0.00 0.00 94 1018.0
20260830220317 64 10 6.0 0.0 0.00 0.00 0.00 94 1018.0
20260830214817 64 360 5.0 0.0 0.00 0.00 0.00 94 1018.0
20260830213317 64 360 5.0 0.0 0.00 0.00 0.00 94 1018.0
20260830211817 64 30 5.0 0.0 0.00 0.00 0.00 94 1018.0
20260830210317 64 30 5.0 0.0 0.00 0.00 0.00 94 1018.0
20260830204817 66 30 3.0 0.0 0.00 0.00 0.00 88 1018.0
20260830203317 66 30 3.0 0.0 0.00 0.00 0.00 88 1018.0
20260830201817 66 20 3.0 0.0 0.00 0.00 0.00 88 1018.0
20260830200317 66 20 3.0 0.0 0.00 0.00 0.00 88 1018.0
20260830194817 68 50 5.0 0.0 0.00 0.00 0.00 78 1018.0
20260830193317 68 50 5.0 0.0 0.00 0.00 0.00 78 1018.0
20260830191818 68 50 6.0 0.0 0.00 0.00 0.00 83 1018.0
20260830190318 68 50 6.0 0.0 0.00 0.00 0.00 83 1018.0
20260830184817 68 40 6.0 0.0 0.00 0.00 0.00 78 1018.0
20260830183346 68 40 6.0 0.0 0.00 0.00 0.00 78 1018.0
20260830181818 72 70 3.0 0.0 0.00 0.00 0.00 73 1018.0
20260830180317 72 70 3.0 0.0 0.00 0.00 0.00 73 1018.0
20260830174817 72 80 5.0 0.0 0.00 0.00 0.00 69 1018.0
20260830173317 72 80 5.0 0.0 0.00 0.00 0.00 69 1018.0
20260830171817 72 70 7.0 0.0 0.00 0.00 0.00 65 1017.0
20260830170317 72 70 7.0 0.0 0.00 0.00 0.00 65 1017.0
20260830164817 75 70 7.0 0.0 0.00 0.00 0.00 54 1017.0
20260830163317 75 70 7.0 0.0 0.00 0.00 0.00 54 1017.0
20260830161818 79 80 9.0 0.0 0.00 0.00 0.00 45 1017.0
20260830160317 79 80 9.0 0.0 0.00 0.00 0.00 45 1017.0
20260830154818 81 80 9.0 0.0 0.00 0.00 0.00 37 1018.0
20260830153317 81 80 9.0 0.0 0.00 0.00 0.00 37 1018.0
20260830151817 82 70 10.0 0.0 0.00 0.00 0.00 35 1018.0
20260830150319 82 70 10.0 0.0 0.00 0.00 0.00 35 1018.0
20260830144818 82 80 9.0 0.0 0.00 0.00 0.00 35 1018.0